Regional Weather Roundup
Issued by NWS

Home | Current Version | Previous Version | Text Only | Print | Product List | Glossary On
Versions: 1 2 3 4 5 6 7 8 9 10 11 12 13 14 15 16 17 18 19 20 21 22 23 24 25 26 27 28 29 30 31 32 33 34 35 36 37 38 39 40 41 42 43 44 45 46 47 48 49 50
000
ASUS45 KSLC 190710
RWRUT

UTAH REGIONAL WEATHER ROUNDUP
NATIONAL WEATHER SERVICE SALT LAKE CITY UT
100 AM MDT FRI SEP 19 2014

UTZ001>011-023>025-190800-

NORTHERN UTAH

CITY           SKY/WX    TMP DP  RH WIND       PRES   REMARKS
HILL AFB       PTCLDY    68  51  54 E20G26    29.94R
LOGAN          TSTM      61  58  90 SW5       29.96F
OGDEN          MOCLDY    67  50  54 CALM      29.92R
PROVO AIRPORT  MOCLDY    70  54  56 NW12      29.93R
SALT LAKE CITY PTCLDY    67  51  56 N8        29.92R
VERNAL         PTCLDY    60  44  55 W5        29.96R
WENDOVER       MOCLDY    66  52  59 CALM      29.95R
HEBER CITY     CLOUDY    64  46  52 NE17G25   30.00R
WEST JORDAN    CLEAR     64  50  59 CALM      29.94S

$$

UTZ012>022-026-027-190800-

SOUTHERN UTAH

CITY           SKY/WX    TMP DP  RH WIND       PRES   REMARKS
BRYCE CANYON   MOCLDY    51  44  77 W6        30.16S
CEDAR CITY     PTCLDY    64  50  60 CALM      30.01R
MILFORD        CLEAR     69  51  52 SW12      29.95R
MOAB/CYNLANDS  CLEAR     65  35  33 W3        29.89S
PRICE          CLEAR     63  39  41 N8        30.00S
ST GEORGE      PTSUNNY   79  46  31 S3        29.84R
KANAB          CLOUDY    66  52  59 NE3       30.01

$$

REGIONAL REPORTS     COLORADO/ARIZONA

CITY           SKY/WX    TMP DP  RH WIND       PRES   REMARKS
CRAIG, CO      CLEAR     47  41  80 E3        30.05R
GRAND JUNCTION CLEAR     65  43  44 E7        29.93S
RIFLE          CLEAR     56  42  59 SE5       30.01S
MONTROSE       CLEAR     63  44  50 SE9       30.05R
CORTEZ         CLEAR     52  44  74 E5        30.05S
PAGE, AZ       PTCLDY    79  51  37 SW3       29.90R
GRAND CANYON   MOCLDY    55  51  86 CALM      30.13S
KINGMAN        PTCLDY    74  57  55 E13       29.88S
FLAGSTAFF      PTCLDY    56  54  93 CALM      30.17S

$$

REGIONAL REPORTS    NEVADA/IDAHO/WYOMING

CITY           SKY/WX    TMP DP  RH WIND       PRES   REMARKS
LAS VEGAS, NV  CLEAR     84  43  23 S14       29.73R
ELY            CLEAR     56  33  42 CALM      30.05R
ELKO           MOCLDY    57  52  83 S7        30.01R
POCATELLO, ID  CLEAR     57  53  86 NE5       29.95R
BURLEY         CLEAR     57  46  66 W3        29.92R HAZE
EVANSTON, WY   MOCLDY    53  48  83 CALM      30.15R
ROCK SPRINGS   MOCLDY    59  43  55 NW22G33   30.09R

$$



USA.gov is the U.S. government's official web portal to all federal, state and local government web resources and services.